Погода в Усуне-Кюеле

Россия / Республика Саха (Якутия)     66°20′41″N   150°30′42″E
темп.,
°C
ветер,
м/с
пор.,
м/с
влажн.,
%
обл.,
%
осадки,
мм/ч
давл.,
гПа
погр.,
м
23 июня, ср
ср2323:00+16в585494 0.0 1011110
02:00+14вюв33586 0.0 101010
05:00+16вюв22555 0.0 101043
08:00+19всв12425 0.0 1010610
11:00+22св12365 0.0 10091937
14:00+24в3329100 0.0 10082912
17:00+24в232970 0.0 10072649
20:00+20св9847100 0.2 1008637
24 июня, чт
чт2423:00+15ююз337569 0.5 100845
02:00+13в33765 0.0 100718
05:00+15в11672 0.0 100767
08:00+18всв22535 0.0 1007653
11:00+21в23415 0.0 10061631
14:00+23вюв23343 0.0 10052340
17:00+24юв333166 0.0 10052479
20:00+24юв33325 0.0 10062050
25 июня, пт
пт2523:00+19ююв33485 0.0 100613
02:00+16юз22545 0.0 100611
05:00+19ссз11525 0.0 100711
08:00+22св01385 0.0 1007558
11:00+25ююв23296 0.0 10062350
14:00+26ю342454 0.0 10053038
17:00+27ююз3422100 0.0 10043150
20:00+26юз222799 0.0 1004237
26 июня, сб
сб2623:00+21ю443765 0.0 100432
02:00+18ююв44435 0.0 100522
05:00+19ююв4645100 0.0 100592
08:00+24ю57345 0.0 1005402
11:00+27ю76250 0.0 10041648
14:00+29ю65225 0.0 10032470
17:00+30ю5521100 0.0 10032815
20:00+28ю682775 0.0 1003365
27 июня, вс
вс2723:00+23ю593799 0.0 1004113
02:00+20ююз5639100 0.0 100464
05:00+21ю334584 0.0 100532
08:00+26ю2232100 0.0 1005263
11:00+30ю322484 0.0 10051139
14:00+32ююз122144 0.0 10042787
17:00+32сз221963 0.0 10042980
20:00+32сз1128100 0.0 100433